User: anonymous   Login
Location: Unspecified
(0.0000°N, 0.0000°E)
Time: 02:59:49
(UTC+00:00)
Language:

CAT - Orbit

View from above orbital plane
View from above orbital plane
View from above satellite
View from above satellite

Ground track
Ground track

The orbit data is extracted from the following two-line orbital elements,

1 12546U 81057C   18171.58499569 +.00003720 +00000-0 +24324-3 0  9992
2 12546 010.2248 304.5420 6124932 007.1237 358.5754 03.90415053290314
Epoch (UTC): 20 June 2018 14:02:23
Eccentricity: 0.6124932
inclination: 10.2248°
perigee height: 223 km
apogee height: 21093 km
right ascension of ascending node: 304.5420°
argument of perigee: 7.1237°
revolutions per day: 3.90415053
mean anomaly at epoch: 358.5754°
orbit number at epoch: 29031

The dashed part of the orbit path shows where the satellite is in the earth's shadow,  

DLR